{"data":{"norad_id":68077,"intl_designator":"2026-042J","name":"STARLINK-37036","alt_names":[],"object_type":"PAYLOAD","status":"ACTIVE","operator":null,"country":"US","launch_date":"2026-03-04","launch_site_code":"AFETR","launch_vehicle":null,"mission":null,"orbit_class":"UNKNOWN","rcs_meters":null,"size_class":null,"mass_kg":null,"dimensions":null,"purposes":["comms"],"wikipedia_slug":null,"has_3d_model":false,"image_url":null,"decayed_at":null,"tle_current":{"epoch":"2026-05-25T01:45:56.011680Z","epoch_age_seconds":78905,"freshness":"FRESH","line1":"1 68077U 26042J   26145.07356495  .00013465  00000+0  40887-3 0  9997","line2":"2 68077  53.1584 181.5171 0001609  84.0661 276.0525 15.34404880 14033","mean_motion":15.3440488,"eccentricity":0.0001609,"inclination_deg":53.1584,"raan_deg":181.5171,"arg_perigee_deg":84.0661,"mean_anomaly_deg":276.0525,"bstar":0.00040887,"rev_number":1403,"period_min":93.847459609226,"perigee_km":461.58804699623,"apogee_km":463.78942471803,"semimajor_km":6840.8257358571,"source":"CELESTRAK","updated_at":"2026-05-25T13:38:21.818765Z"}}}